カタログに戻る

STARLINK-4134

運用中通信VLEO
NORAD 53254·PAYLOAD·🇺🇸 United States

打ち上げ Jul 24, 2022 から Cape Canaveral Space Force Station

Loading…

次のパス (今後24時間)

TLE

最新Source: CelesTrak SupGP

元期: Sep 14, 2026, 14:27 UTC

1 53254C 22086N   26257.60256944 -.00032114  00000+0 -10326-2 0  2578
2 53254  53.1587  61.2596 0001269  93.8092 144.2678 15.31722114    18

AllMySatでSTARLINK-4134をリアルタイム追跡

Download on the App Store